Location: Cactus School
(34.5700°N, 118.0931°W)
Time: 06:58:39
(UTC-08:00)

Vanguard 1 - All Passes

Search period start: 22 November 2017 00:00
Search period end: 02 December 2017 00:00
Orbit: 650 x 3834 km, 34.2° (Epoch: 22 November)

Date Brightness Start Highest point End Pass type
(mag) Time Alt. Az. Time Alt. Az. Time Alt. Az.
22 Nov - 11:53:09 10° S 11:57:29 13° SSE 12:00:59 10° SE daylight
22 Nov - 14:11:40 10° SW 14:18:51 37° SSE 14:23:33 10° E daylight
22 Nov - 16:33:37 10° W 16:38:57 82° S 16:43:21 10° E daylight
22 Nov - 18:54:29 10° W 18:58:51 67° SSW 19:04:07 10° ESE visible
22 Nov - 21:14:46 10° WSW 21:18:59 24° SSW 21:24:55 10° SSE night (unlit)
23 Nov - 12:11:44 10° SSW 12:18:48 20° SSE 12:23:47 10° ESE daylight
23 Nov - 14:32:31 10° SW 14:39:54 50° SSE 14:44:39 10° E daylight
23 Nov - 16:54:49 10° W 16:59:57 88° S 17:04:23 10° E daylight
23 Nov - 19:15:32 10° W 19:19:48 51° SSW 19:25:08 10° ESE visible
23 Nov - 21:36:35 10° WSW 21:40:07 17° SSW 21:44:40 10° SSE night (unlit)
24 Nov - 12:31:29 10° SSW 12:40:04 27° SSE 12:45:36 10° E daylight
24 Nov - 14:53:37 10° WSW 15:00:56 63° SSE 15:05:39 10° E daylight
24 Nov - 17:16:00 10° W 17:20:59 86° S 17:25:26 10° E visible
24 Nov - 19:36:39 10° W 19:40:46 37° SSW 19:45:57 10° SE visible
24 Nov - 22:00:02 10° SW 22:01:18 11° SSW 22:02:39 10° SSW night (unlit)
25 Nov - 10:33:33 10° S 10:39:00 13° SSE 10:43:24 10° SE daylight
25 Nov - 12:51:50 10° SW 13:01:16 36° SSE 13:06:59 10° E daylight
25 Nov - 15:14:53 10° WSW 15:21:57 76° S 15:26:36 10° E daylight
25 Nov - 17:37:09 10° W 17:41:58 77° S 17:46:28 10° ESE visible
25 Nov - 19:57:56 10° W 20:01:44 26° SSW 20:06:28 10° SSE visible
26 Nov - 10:51:35 10° SSW 11:00:26 20° SSE 11:06:39 10° ESE daylight
26 Nov - 13:12:36 10° SW 13:22:26 47° SSE 13:28:08 10° E daylight
26 Nov - 15:36:13 10° W 15:42:58 85° S 15:47:34 10° E daylight
26 Nov - 17:58:18 10° W 18:02:56 62° SSW 18:07:26 10° ESE visible
26 Nov - 20:19:35 10° WSW 20:22:43 18° SSW 20:26:29 10° SSE visible
27 Nov - 11:10:58 10° SSW 11:21:49 27° SSE 11:28:44 10° E daylight
27 Nov - 13:33:40 10° WSW 13:43:32 58° SSE 13:49:10 10° E daylight
27 Nov - 15:57:35 10° W 16:04:01 88° S 16:08:32 10° E daylight
27 Nov - 18:19:27 10° W 18:23:51 46° SSW 18:28:17 10° SE visible
27 Nov - 20:42:24 10° SW 20:43:44 11° SSW 20:45:10 10° SSW visible
28 Nov - 09:13:57 10° S 09:19:54 13° SSE 09:24:51 10° SE daylight
28 Nov - 11:31:04 10° SW 11:43:09 35° SSE 11:50:17 10° E daylight
28 Nov - 13:54:58 10° WSW 14:04:37 70° SSE 14:10:07 10° E daylight
28 Nov - 16:18:55 10° W 16:25:02 85° S 16:29:30 10° E daylight
28 Nov - 18:40:42 10° W 18:44:44 32° SSW 18:48:55 10° SE visible
29 Nov - 09:31:05 10° S 09:41:26 19° SSE 09:48:56 10° ESE daylight
29 Nov - 11:51:40 10° SW 12:04:24 45° SSE 12:11:32 10° E daylight
29 Nov - 14:16:25 10° WSW 14:25:42 80° S 14:31:03 10° E daylight
29 Nov - 16:40:12 10° W 16:46:02 75° SSW 16:50:26 10° ESE daylight
29 Nov - 19:02:10 10° WSW 19:05:35 21° SSW 19:09:11 10° SSE visible
30 Nov - 09:49:58 10° SSW 10:02:55 26° SSE 10:11:25 10° E daylight
30 Nov - 12:12:38 10° SW 12:25:37 55° SSE 12:32:39 10° E daylight
30 Nov - 14:37:56 10° W 14:46:47 87° S 14:51:59 10° E daylight
30 Nov - 17:01:29 10° W 17:06:59 60° SSW 17:11:18 10° ESE visible
30 Nov - 19:24:15 10° WSW 19:26:26 13° SSW 19:28:43 10° S visible
01 Dec - 07:55:38 10° SSE 08:00:09 11° SE 08:04:14 10° SE daylight
01 Dec - 10:09:43 10° SSW 10:24:19 34° SSE 10:33:13 10° E daylight
01 Dec - 12:33:54 10° WSW 12:46:47 66° SSE 12:53:39 10° E daylight
01 Dec - 14:59:28 10° W 15:07:51 88° S 15:12:55 10° E daylight
01 Dec - 17:22:47 10° W 17:27:51 44° SSW 17:32:02 10° SE visible
